Weather History for Bigfork, MN

Change the Weather History Date:

Friday, November 8, 2013

  Actual Average (KGPZ) Record (KGPZ)
Temperature  
Mean Temperature 24 °F -  
Max Temperature 37 °F 40 °F 69 °F (1931)
Min Temperature 12 °F 24 °F -7 °F (2003)
Degree Days  
Heating Degree Days 40    
Moisture  
Dew Point 23 °F    
Average Humidity 86    
Maximum Humidity 93    
Minimum Humidity 65    
Precipitation  
Precipitation 0.22 in - - ()
Sea Level Pressure  
Sea Level Pressure 29.88 in    
Wind  
Wind Speed 3 mph (SE)    
Max Wind Speed 13 mph    
Max Gust Speed 18 mph    
Visibility 7 miles    
Events Snow    
Averages and records for this station are not official NWS values.
T = Trace of Precipitation, MM = Missing Value Source: NWS Daily Summary

Daily Weather History Graph

Daily Weather History Graph

Search for Another Location

Airport:

Trip Planner

Search our weather history database for the weather conditions in past years. The results will help you decide how hot, cold, wet, or windy it might be!

Date:

Astronomy

Nov. 08, 2013 Rise Set
Actual Time 7:10 AM CST 4:45 PM CST
Civil Twilight 6:37 AM CST 5:19 PM CST
Nautical Twilight 6:00 AM CST 5:56 PM CST
Astronomical Twilight 5:23 AM CST 6:32 PM CST
Moon 12:06 PM CST (11/8) 10:09 PM CST (11/8)
Length of Visible Light 10h 41m
Length of Day
9h 35m
Waxing Crescent, 33% of the Moon is Illuminated
Nov 8
Waxing Crescent
Nov 9
First Quarter
Nov 17
Full
Nov 25
Last Quarter
Dec 2
New

Hourly Weather History & Observations

Time (CST) Temp. Windchill Dew Point Humidity Pressure Visibility Wind Dir Wind Speed Gust Speed Precip Events Conditions
12:13 AM 12.2 °F - 10.4 °F 92% 30.11 in 10.0 mi Calm Calm - N/A   Clear
12:33 AM 14.0 °F - 10.4 °F 86% 30.11 in 10.0 mi Calm Calm - N/A   Clear
12:53 AM 14.0 °F - 10.4 °F 86% 30.11 in 10.0 mi Calm Calm - N/A   Clear
1:13 AM 12.2 °F - 8.6 °F 85% 30.11 in 10.0 mi Calm Calm - N/A   Clear
1:33 AM 12.2 °F - 10.4 °F 92% 30.10 in 10.0 mi Calm Calm - N/A   Clear
1:53 AM 12.2 °F - 10.4 °F 92% 30.10 in 10.0 mi Calm Calm - N/A   Clear
2:13 AM 12.2 °F - 10.4 °F 92% 30.10 in 10.0 mi Calm Calm - N/A   Clear
2:33 AM 12.2 °F - 10.4 °F 92% 30.10 in 10.0 mi Calm Calm - N/A   Clear
2:53 AM 12.2 °F - 10.4 °F 92% 30.10 in 10.0 mi Calm Calm - N/A   Clear
3:13 AM 12.2 °F - 10.4 °F 92% 30.10 in 10.0 mi Calm Calm - N/A   Clear
3:33 AM 12.2 °F - 10.4 °F 92% 30.10 in 10.0 mi Calm Calm - N/A   Clear
3:53 AM 14.0 °F 8.2 °F 10.4 °F 86% 30.09 in 10.0 mi SE 3.5 mph - N/A   Clear
4:13 AM 12.2 °F - 10.4 °F 92% 30.09 in 10.0 mi Calm Calm - N/A   Clear
4:33 AM 12.2 °F - 10.4 °F 92% 30.08 in 10.0 mi Calm Calm - N/A   Clear
4:53 AM 15.8 °F - 12.2 °F 86% 30.08 in 10.0 mi Calm Calm - N/A   Clear
5:13 AM 15.8 °F - 14.0 °F 93% 30.07 in 10.0 mi Calm Calm - N/A   Clear
5:33 AM 15.8 °F - 14.0 °F 93% 30.07 in 10.0 mi Calm Calm - N/A   Clear
5:53 AM 17.6 °F - 14.0 °F 86% 30.06 in 7.0 mi Calm Calm - N/A   Clear
6:13 AM 17.6 °F - 15.8 °F 93% 30.05 in 10.0 mi Calm Calm - N/A   Clear
6:33 AM 19.4 °F - 17.6 °F 93% 30.05 in 10.0 mi Calm Calm - N/A   Clear
6:53 AM 23.0 °F 18.4 °F 19.4 °F 86% 30.04 in 10.0 mi SSE 3.5 mph - N/A   Clear
7:13 AM 23.0 °F - 21.2 °F 93% 30.04 in 10.0 mi Calm Calm - N/A   Clear
7:33 AM 23.0 °F - 21.2 °F 93% 30.03 in 10.0 mi Calm Calm - N/A   Clear
7:53 AM 24.8 °F - 21.2 °F 86% 30.03 in 7.0 mi Calm Calm - N/A   Clear
8:13 AM 24.8 °F 20.5 °F 23.0 °F 93% 30.03 in 7.0 mi SE 3.5 mph - N/A   Clear
8:33 AM 26.6 °F 21.2 °F 24.8 °F 93% 30.02 in 7.0 mi SSE 4.6 mph - N/A   Clear
8:53 AM 26.6 °F 22.6 °F 24.8 °F 93% 30.01 in 10.0 mi SE 3.5 mph - N/A   Clear
9:13 AM 28.4 °F 23.3 °F 24.8 °F 86% 30.00 in 10.0 mi SE 4.6 mph - N/A   Clear
9:33 AM 30.2 °F 24.3 °F 26.6 °F 86% 29.98 in 10.0 mi SSE 5.8 mph - N/A   Clear
9:53 AM 30.2 °F 23.4 °F 26.6 °F 86% 29.98 in 10.0 mi SSE 6.9 mph - N/A   Clear
10:13 AM 32.0 °F 25.6 °F 26.6 °F 80% 29.97 in 10.0 mi SSE 6.9 mph - N/A   Clear
10:33 AM 33.8 °F 29.6 °F 26.6 °F 75% 29.97 in 10.0 mi SSE 4.6 mph - N/A   Clear
10:53 AM 33.8 °F 27.7 °F 26.6 °F 75% 29.95 in 10.0 mi SE 6.9 mph - N/A   Clear
11:13 AM 33.8 °F 27.7 °F 26.6 °F 75% 29.93 in 10.0 mi SSE 6.9 mph - N/A   Clear
11:33 AM 35.6 °F 29.9 °F 26.6 °F 70% 29.92 in 10.0 mi SE 6.9 mph - N/A   Clear
11:53 AM 35.6 °F 29.9 °F 26.6 °F 70% 29.91 in 10.0 mi SE 6.9 mph - N/A   Clear
12:13 PM 37.4 °F 32.1 °F 26.6 °F 65% 29.90 in 10.0 mi SSE 6.9 mph - N/A   Clear
12:33 PM 37.4 °F 30.8 °F 26.6 °F 65% 29.89 in 10.0 mi SSE 9.2 mph - N/A   Clear
12:53 PM 37.4 °F 32.8 °F 26.6 °F 65% 29.88 in 10.0 mi SE 5.8 mph - N/A   Clear
1:13 PM 37.4 °F 30.8 °F 26.6 °F 65% 29.87 in 10.0 mi SSE 9.2 mph - N/A   Clear
1:33 PM 37.4 °F 32.1 °F 26.6 °F 65% 29.87 in 10.0 mi SSE 6.9 mph - N/A   Clear
1:53 PM 35.6 °F 28.0 °F 26.6 °F 70% 29.86 in 2.0 mi SSE 10.4 mph - N/A Snow Light Snow
2:13 PM 33.8 °F 27.0 °F 28.4 °F 81% 29.84 in 0.8 mi SE 8.1 mph - N/A Snow Light Snow
2:33 PM 33.8 °F 26.4 °F 30.2 °F 87% 29.82 in 0.8 mi ESE 9.2 mph - N/A Snow Light Snow
2:53 PM 33.8 °F 27.7 °F 30.2 °F 87% 29.81 in 1.0 mi ESE 6.9 mph - N/A Snow Light Snow
3:13 PM 33.8 °F 26.4 °F 30.2 °F 87% 29.79 in 0.5 mi ESE 9.2 mph - 0.01 in Snow Light Snow
3:33 PM 33.8 °F 26.4 °F 30.2 °F 87% 29.79 in 1.0 mi SE 9.2 mph - 0.02 in Snow Light Snow
3:53 PM 33.8 °F 27.0 °F 30.2 °F 87% 29.78 in 0.8 mi SE 8.1 mph - 0.01 in Snow Light Snow
4:13 PM 33.8 °F 27.0 °F 30.2 °F 87% 29.77 in 1.5 mi ESE 8.1 mph - 0.02 in Snow Light Snow
4:33 PM 33.8 °F 27.0 °F 30.2 °F 87% 29.76 in 1.2 mi ESE 8.1 mph - 0.05 in Snow Light Snow
4:54 PM 33.8 °F 28.6 °F 30.2 °F 87% 29.75 in 1.0 mi ESE 5.8 mph - 0.01 in Snow Snow
5:13 PM 32.0 °F 22.5 °F 30.2 °F 93% 29.72 in 0.8 mi East 12.7 mph 16.1 mph 0.01 in Snow Snow
5:33 PM 32.0 °F 24.8 °F 30.2 °F 93% 29.73 in 5.0 mi East 8.1 mph - 0.05 in Snow Light Snow
5:53 PM 33.8 °F 26.4 °F 30.2 °F 87% 29.72 in 2.5 mi East 9.2 mph 17.3 mph N/A Snow Light Snow
6:13 PM 33.8 °F 27.0 °F 30.2 °F 87% 29.71 in 4.0 mi East 8.1 mph - N/A Snow Light Snow
6:33 PM 33.8 °F 27.0 °F 30.2 °F 87% 29.71 in 3.0 mi ESE 8.1 mph - N/A Snow Light Snow
6:53 PM 33.8 °F 28.6 °F 30.2 °F 87% 29.70 in 1.8 mi SSE 5.8 mph - 0.01 in Snow Light Snow
7:13 PM 33.8 °F 25.3 °F 30.2 °F 87% 29.67 in 1.2 mi East 11.5 mph 18.4 mph 0.02 in Snow Light Snow
7:33 PM 33.8 °F 28.6 °F 30.2 °F 87% 29.67 in 2.5 mi ESE 5.8 mph - 0.03 in Snow Light Snow
7:53 PM 33.8 °F 27.0 °F 30.2 °F 87% 29.67 in 1.2 mi ESE 8.1 mph - N/A Snow Light Snow
8:13 PM 33.8 °F 27.0 °F 30.2 °F 87% 29.66 in 1.2 mi ESE 8.1 mph - 0.02 in Snow Light Snow
8:33 PM 33.8 °F 28.6 °F 30.2 °F 87% 29.65 in 1.0 mi SE 5.8 mph - 0.04 in Snow Light Snow
8:53 PM 33.8 °F 29.6 °F 30.2 °F 87% 29.64 in 1.8 mi East 4.6 mph - 0.01 in Snow Light Snow
9:13 PM 33.8 °F 27.7 °F 30.2 °F 87% 29.63 in 3.0 mi East 6.9 mph - 0.01 in Snow Light Snow
9:33 PM 33.8 °F 29.6 °F 30.2 °F 87% 29.63 in 3.0 mi ESE 4.6 mph - 0.01 in Snow Light Snow
9:53 PM 33.8 °F 29.6 °F 30.2 °F 87% 29.62 in 4.0 mi East 4.6 mph - N/A Snow Light Snow
10:13 PM 33.8 °F 27.7 °F 30.2 °F 87% 29.61 in 3.0 mi ESE 6.9 mph - N/A Snow Light Snow
10:33 PM 33.8 °F 30.8 °F 30.2 °F 87% 29.60 in 2.0 mi ESE 3.5 mph - 0.01 in Snow Light Snow
10:53 PM 33.8 °F 30.8 °F 30.2 °F 87% 29.59 in 3.0 mi ESE 3.5 mph - N/A Snow Light Snow
11:13 PM 33.8 °F 30.8 °F 30.2 °F 87% 29.59 in 7.0 mi ESE 3.5 mph - N/A   Overcast
11:33 PM 33.8 °F 30.8 °F 30.2 °F 87% 29.59 in 5.0 mi ESE 3.5 mph - N/A   Overcast
11:53 PM 33.8 °F 30.8 °F 30.2 °F 87% 29.58 in 7.0 mi ESE 3.5 mph - N/A   Overcast